Вернуться в каталог

DELTA 1 DEB

АктивенLEO
NORAD 7175·DEBRIS·🇺🇸 United States

Запущен Nov 6, 1973 с Vandenberg Space Force Base

Loading…

Ближайшие Пролёты (ближайшие 24 часа)

TLE

СвежийSource: Space-Track

Эпоха: Sep 12, 2026, 13:17 UTC

1 07175U 73086EM  26255.55352779  .00000145  00000-0  66112-3 0  9996
2 07175 102.5902 126.2027 0196311  43.9467  23.6426 12.94235141480259

Отслеживайте DELTA 1 DEB в реальном времени с AllMySat

Download on the App Store